Starlink 30564

operational
NORAD ID: 58043 Int'l Des: 2023-156 Owner: SPXS Country: US Constellation: starlink
LEOCIRCULAR

About Starlink 30564

Description loading...

Live Position

Loading 3D Globe...

Upcoming Passes

Altitude History

Altitude vs Time

uPlot chart will show altitude changes over time

Two-Line Element Set

1 58043U 23156R 25311.23563559 -.00121571 00000-0 -41711-2 0 9992
2 58043 53.1578 287.2763 0001304 109.9504 250.1637 15.30110766117566
Epoch: Nov 7, 2025 • Age: 10 hours

Current Status

Altitude 475.5 km
Velocity 7.63 km/s
Sub-Earth Point 9.71°N, 174.02°E
Launch Date Oct 9, 2023
Age 2 years
Type internet

Technical Details

Classification Payload
Mass 730.00 kg
Dry Mass 700.00 kg
Total Mass 730.00 kg
Length 0.30 m
Diameter 4.10 m
Span 29.00 m
Shape Box + pan
Manufacturer SPXS
Bus Type Starlink V2M
Phase Status In Orbit
Owner/State SPXS/US

Large Constellations

Loading constellations...